Weather History for Atlanta Dekalb, GA

Change the Weather History Date:

Saturday, May 3, 2014

  Actual Average Record
Temperature  
Mean Temperature 62 °F 66 °F  
Max Temperature 75 °F 77 °F 87 °F (2007)
Min Temperature 49 °F 55 °F 43 °F (2004)
Degree Days  
Heating Degree Days 4    
Cooling Degree Days 0 3  
Month to date cooling degree days 0 9  
Year to date cooling degree days 32 58  
Growing Degree Days 12 (Base 50)    
Moisture  
Dew Point 41 °F    
Average Humidity 49    
Maximum Humidity 68    
Minimum Humidity 29    
Precipitation  
Precipitation 0.00 in 0.13 in 0.73 in (2011)
Month to date precipitation 0.00 0.37  
Year to date precipitation 15.38 18.81  
Sea Level Pressure  
Sea Level Pressure 29.98 in    
Wind  
Wind Speed 7 mph (WNW)    
Max Wind Speed 17 mph    
Max Gust Speed 24 mph    
Visibility 10 miles    
Events      
T = Trace of Precipitation, MM = Missing Value Source: NWS Daily Summary

Daily Weather History Graph

Daily Weather History Graph

Search for Another Location

Airport:

Trip Planner

Search our weather history database for the weather conditions in past years. The results will help you decide how hot, cold, wet, or windy it might be!

Date:

Astronomy

May. 03, 2014 Rise Set
Actual Time 6:46 AM EDT 8:22 PM EDT
Civil Twilight 6:19 AM EDT 8:49 PM EDT
Nautical Twilight 5:47 AM EDT 9:21 PM EDT
Astronomical Twilight 5:13 AM EDT 9:55 PM EDT
Moon 10:17 AM EDT (5/3) No Moon Set
Length of Visible Light 14h 29m
Length of Day
13h 36m
Waxing Crescent, 19% of the Moon is Illuminated
May 3
Waxing Crescent
May 6
First Quarter
May 14
Full
May 21
Last Quarter
May 28
New

Hourly Weather History & Observations

Time (EDT) Temp. Dew Point Humidity Pressure Visibility Wind Dir Wind Speed Gust Speed Precip Events Conditions
12:53 AM 59.0 °F 41.0 °F 51% 29.94 in 10.0 mi WNW 6.9 mph - N/A   Overcast
1:53 AM 57.9 °F 42.1 °F 56% 29.94 in 10.0 mi WNW 3.5 mph - N/A   Overcast
2:53 AM 55.9 °F 41.0 °F 57% 29.93 in 10.0 mi WNW 4.6 mph - N/A   Partly Cloudy
3:53 AM 54.0 °F 41.0 °F 62% 29.95 in 10.0 mi NW 5.8 mph - N/A   Clear
4:53 AM 52.0 °F 41.0 °F 66% 29.96 in 10.0 mi NW 5.8 mph - N/A   Clear
5:53 AM 51.1 °F 39.9 °F 66% 29.96 in 10.0 mi West 3.5 mph - N/A   Clear
6:53 AM 50.0 °F 39.9 °F 68% 29.98 in 10.0 mi NW 4.6 mph - N/A   Clear
7:53 AM 54.0 °F 42.1 °F 64% 29.99 in 10.0 mi Calm Calm - N/A   Clear
8:53 AM 59.0 °F 41.0 °F 51% 30.00 in 10.0 mi Variable 4.6 mph - N/A   Clear
9:53 AM 63.0 °F 37.9 °F 40% 30.01 in 10.0 mi NW 11.5 mph - N/A   Clear
10:53 AM 66.0 °F 39.0 °F 37% 30.01 in 10.0 mi NW 11.5 mph 19.6 mph N/A   Clear
11:53 AM 68.0 °F 39.9 °F 36% 30.01 in 10.0 mi NW 11.5 mph 18.4 mph N/A   Clear
12:53 PM 69.1 °F 39.0 °F 33% 30.01 in 10.0 mi WNW 13.8 mph 23.0 mph N/A   Clear
1:53 PM 71.1 °F 39.0 °F 31% 30.00 in 10.0 mi WNW 12.7 mph 21.9 mph N/A   Clear
2:53 PM 73.0 °F 41.0 °F 31% 29.98 in 10.0 mi West 11.5 mph 19.6 mph N/A   Clear
3:53 PM 73.0 °F 41.0 °F 31% 29.96 in 10.0 mi WNW 11.5 mph 16.1 mph N/A   Clear
4:53 PM 73.9 °F 41.0 °F 30% 29.95 in 10.0 mi WNW 6.9 mph 17.3 mph N/A   Clear
5:53 PM 73.9 °F 42.1 °F 32% 29.96 in 10.0 mi WNW 9.2 mph - N/A   Clear
6:53 PM 73.0 °F 39.9 °F 30% 29.96 in 10.0 mi WNW 12.7 mph 17.3 mph N/A   Clear
7:53 PM 71.1 °F 41.0 °F 34% 29.98 in 10.0 mi WNW 9.2 mph - N/A   Clear
8:53 PM 66.9 °F 42.1 °F 40% 29.99 in 10.0 mi WSW 4.6 mph - N/A   Clear
9:53 PM 64.0 °F 43.0 °F 46% 30.01 in 10.0 mi Calm Calm - N/A   Clear
10:53 PM 62.1 °F 44.1 °F 52% 30.02 in 10.0 mi West 3.5 mph - N/A   Clear
11:53 PM 57.0 °F 46.0 °F 67% 30.04 in 10.0 mi Calm Calm - N/A   Clear